Location: Newark
(30.1000°N, 109.4667°E)
Time: 06:10:46
(UTC+00:00)

SR - Pass Details

Date: 23 February 2020
Orbit: 578 x 878 km, 66.7° (Epoch: 07 April)

Event Time Altitude Azimuth Distance (km) Brightness Sun altitude
Rises 08:38:18 0° 247° (WSW) 3,437 ? 23.2°
Reaches altitude 10° 08:41:41 10° 267° (W) 2,520 ? 22.5°
Maximum altitude 08:45:25 17° 307° (NW) 2,062 ? 21.8°
Drops below altitude 10° 08:49:10 10° 346° (NNW) 2,517 ? 21.1°
Sets 08:52:34 0° 6° (N) 3,432 ? 20.4°
